Weather Service Report


556 
ASUS43 KDTX 161310
RWRMI 
MICHIGAN HOURLY REGIONAL WEATHER ROUNDUP
NATIONAL WEATHER SERVICE DETROIT/PONTIAC MI
900 AM EDT TUE SEP 16 2014

NOTE: "FAIR" INDICATES FEW OR NO CLOUDS BELOW 12,000 FEET WITH NO
SIGNIFICANT WEATHER AND/OR OBSTRUCTION TO VISIBILITY.

MIZ047>049-052>055-059>063-066>070-074>076-081>083-161400-
SOUTHEAST LOWER MICHIGAN
  
CITY           SKY/WX    TMP DP  RH WIND       PRES   REMARKS
ADRIAN         CLOUDY    51  49  92 N12       30.19R                  
ALMA           FOG       44  43  98 SW3       30.17F VSB 1/4          
ANN ARBOR      MOSUNNY   54  47  77 N5        30.16S                  
BAD AXE        SUNNY     48  48 100 CALM      30.15S                  
CARO           FOG       45  45 100 SW3       30.16S VSB 1/4          
DETROIT CITY   SUNNY     55  47  74 N7        30.17R                  
DETROIT        MOSUNNY   53  49  86 NW6       30.17R                  
FLINT          FOG       50  47  89 W3        30.18S VSB 1/2          
GROSSE ILE     MOSUNNY   54  50  87 NW5       30.15S                  
HILLSDALE      PTSUNNY   50  49  99 NW6       30.18R                  
HOWELL         CLOUDY    49  48  96 NW3       30.17S                  

CITY           SKY/WX    TMP DP  RH WIND       PRES   REMARKS
JACKSON        CLOUDY    50  48  93 CALM      30.18S                  
LAMBERTVILLE   MOSUNNY   54  50  87 N3        30.17F                  
LANSING        FOG       47  47 100 CALM      30.19R VSB<1/4          
LAPEER         CLOUDY    49  47  95 CALM      30.17S FOG              
MASON          CLOUDY    48  47  95 CALM      30.18S FOG              
MONROE         SUNNY     52  52 100 NW5       30.15S                  
MT. CLEMENS    CLOUDY    50  48  95 NW5       30.14F FOG              
PONTIAC        PTSUNNY   49  46  90 N9        30.15F                  
PORT HOPE        N/A     51  49  92 CALM      30.13S                  
PORT HURON     CLOUDY    48  48 100 NW7       30.16S FOG              
TRI CITIES     MOSUNNY   48  46  93 SW5       30.17S FOG              
TROY           SUNNY     52  47  84 NW5       30.17F                  
SAGINAW HB     FOG       46  46 100 SW3       30.16S VSB 1/2          
$$
MIZ043>046-050>051-056>058-064>065-071>073-077>080-161400-
SOUTHWEST LOWER MICHIGAN
  
CITY           SKY/WX    TMP DP  RH WIND       PRES   REMARKS
BATTLE CREEK   FOG       48  47  96 CALM      30.19S VSB 1/4          
BENTON HARBOR  MOSUNNY   49  48  97 CALM      30.19S                  
BIG RAPIDS     CLOUDY    41  41 100 CALM      30.16S FOG              
COLDWATER      CLOUDY    49  49  97 N6        30.18S FOG              
FREMONT        FOG       42  42  98 CALM      30.17S VSB 1/4          
HOLLAND        SUNNY     50  48  93 S3        30.18F                  
GRAND RAPIDS   MOSUNNY   47  46  97 S3        30.18F FOG              
IONIA          FOG       45  45 100 CALM      30.17S VSB<1/4          
KALAMAZOO      SUNNY     50  48  93 CALM      30.19S                  
LUDINGTON      SUNNY     49  49  98 NW3       30.16F                  
MARSHALL       CLOUDY    46  46  98 CALM      30.18S FOG              
MOUNT PLEASANT SUNNY     47  47  98 SW3       30.16S FOG              
MUSKEGON       MOSUNNY   48  46  93 CALM      30.18S                  
SOUTH HAVEN    CLOUDY    51  51 100 CALM      30.19S                  
$$
MIZ016>042-161400-
NORTHERN LOWER MICHIGAN
  
CITY           SKY/WX    TMP DP  RH WIND       PRES   REMARKS
ALPENA         SUNNY     47  45  93 SW3       30.13S                  
BEAVER ISLAND  SUNNY     54  46  75 SW5       30.11F                  
BELLAIRE       CLOUDY    49  48  96 CALM      30.14S                  
CADILLAC       FOG       45  45 100 CALM      30.14S VSB<1/4          
CHARLEVOIX     SUNNY     56  44  64 W7        30.15S                  
FRANKFORT      MOSUNNY   45  43  90 CALM      30.15S                  
GAYLORD        PTSUNNY   45  43  93 SW3       30.13S                  
GRAYLING       FOG       46  46 100 CALM      30.15S VSB<1/4          
HARBOR SPRINGS SUNNY     51  46  84 CALM      30.12F                  
HOUGHTON LAKE  CLOUDY    47  47 100 CALM      30.15S                  
MANISTEE       CLOUDY    41  39  93 CALM      30.16S VSB 3/4          
OSCODA         SUNNY     47  47  99 W5        30.14S                  
PELLSTON       SUNNY     44  43  96 CALM      30.12F                  
ROGERS CITY    SUNNY     48  47  97 SW6       30.13S                  
TRAVERSE CITY  PTSUNNY   49  46  90 CALM      30.13F                  
$$
MIZ007>008-015-161400-
EASTERN UPPER MICHIGAN
  
CITY           SKY/WX    TMP DP  RH WIND       PRES   REMARKS
KINROSS        SUNNY     45  43  93 SW6       30.09S                  
MACKINAC ISLAN SUNNY     54  45  72 W8        30.10S                  
NEWBERRY       SUNNY     44  42  90 SW8       30.08F                  
S. S. MARIE    SUNNY     46  42  86 SW3       30.07F                  
MUNISING         N/A     45  38  76 VRB3      30.08F                  
$$
MIZ004>006-011>014-085-161400-
CENTRAL UPPER MICHIGAN
  
CITY           SKY/WX    TMP DP  RH WIND       PRES   REMARKS
MANISTIQUE     SUNNY     47  42  85 W5        30.10F                  
ESCANABA       SUNNY     43  39  87 W6        30.12F                  
MENOMINEE      SUNNY     43  37  81 W3        30.14F                  
SAWYER-GWINN   SUNNY     39  36  87 SW9       30.10F WCI  33          
$$
MIZ001>003-009>011-084-161400-
WESTERN UPPER MICHIGAN
  
CITY           SKY/WX    TMP DP  RH WIND       PRES   REMARKS
IRON MOUNTAIN  SUNNY     43  36  76 CALM      30.12F                  
HOUGHTON       MOSUNNY   51  36  56 W14       30.02F                  
COPPER HARBOR    N/A     54  38  54 W9G18     30.00F                  
IRONWOOD       PTSUNNY   46  37  71 SW9       30.07F                  
$$

ABBREVIATIONS USED IN REMARKS
   TC - TEMPERATURE IN CELSIUS
  WCI - WIND CHILL INDEX
   HX - HEAT INDEX
  VSB - VISIBILITY


Return to Home page


Western Regional Climate Center, wrcc@dri.edu